Tracking 35237 objects as of 5-Sep-2026
HD Live streaming from Space Station
objects crossing your sky now

COSMOS 2131

Track COSMOS 2131 now!
10-day predictions
COSMOS 2131 is classified as:


NORAD ID: 21106
Int'l Code: 1991-009G
Launch date: February 12, 1991
Source: Commonwealth of Independent States (former USSR) (CIS)
Launch site: PLESETSK MISSILE AND SPACE COMPLEX (PKMTR)
Your satellite tracking list
Your tracking list is empty




NASA's NSSDC Master Catalog

Two Line Element Set (TLE):
1 21106U 91009G   26247.79767656 -.00000017  00000-0 -54482-5 0  9991
2 21106  74.0282 283.1975 0051429  44.8680  75.0992 12.58965452634283
Source of the keplerian elements: AFSPC